Change the Weather History Date:

Wednesday, December 12, 2012

  Actual Average Record
Temperature  
Mean Temperature 48 °F -  
Max Temperature 55 °F 52 °F 69 °F (1958)
Min Temperature 42 °F 37 °F 25 °F (1972)
Degree Days  
Heating Degree Days 16    
Moisture  
Dew Point 43 °F    
Average Humidity 79    
Maximum Humidity 94    
Minimum Humidity 53    
Precipitation  
Precipitation 0.00 in - - ()
Sea Level Pressure  
Sea Level Pressure 29.84 in    
Wind  
Wind Speed 10 mph (South)    
Max Wind Speed 15 mph    
Max Gust Speed -    
Visibility 10 miles    
Events      
Averages and records for this station are not official NWS values.
T = Trace of Precipitation, MM = Missing Value Source: NWS Daily Summary

Daily Weather History Graph

Daily Weather History Graph

Search for Another Location

Airport or City:

Trip Planner

Search our weather history database for the weather conditions in past years. The results will help you decide how hot, cold, wet, or windy it might be!

Date:

Astronomy

Dec. 12, 2012 Rise Set
Actual Time 7:15 AM PST 4:45 PM PST
Civil Twilight 6:45 AM PST 5:15 PM PST
Nautical Twilight 6:12 AM PST 5:48 PM PST
Astronomical Twilight 5:40 AM PST 6:20 PM PST
Moon 6:25 AM PST (12/12) 4:27 PM PST (12/12)
Length of Visible Light 10h 29m
Length of Day
9h 29m
Waning Crescent, 0% of the Moon is Illuminated
Dec 12
Waning Crescent
Dec 13
New
Dec 19
First Quarter
Dec 28
Full
Jan 4
Last Quarter

Hourly Weather History & Observations

Time (PST) Temp. Windchill Dew Point Humidity Pressure Visibility Wind Dir Wind Speed Gust Speed Precip Events Conditions
12:53 AM 52.0 °F - 48.0 °F 86% 29.82 in 10.0 mi South 15.0 mph - N/A   Overcast
1:53 AM 50.0 °F - 48.0 °F 93% 29.81 in 10.0 mi SSE 11.5 mph - N/A   Overcast
2:33 AM 50.0 °F - 48.2 °F 94% 29.81 in 10.0 mi SSE 13.8 mph - N/A   Overcast
2:48 AM 50.0 °F - 48.2 °F 94% 29.81 in 10.0 mi SSE 11.5 mph - N/A   Overcast
2:53 AM 50.0 °F - 46.9 °F 89% 29.81 in 10.0 mi SSE 13.8 mph - N/A   Mostly Cloudy
3:53 AM 50.0 °F - 48.0 °F 93% 29.80 in 10.0 mi South 8.1 mph - N/A   Overcast
4:53 AM 50.0 °F - 48.0 °F 93% 29.81 in 10.0 mi SSW 9.2 mph - N/A   Overcast
5:53 AM 48.9 °F - 46.0 °F 90% 29.81 in 10.0 mi SSW 9.2 mph - N/A   Overcast
6:53 AM 48.0 °F - 43.0 °F 83% 29.81 in 10.0 mi South 11.5 mph - N/A   Clear
7:53 AM 46.0 °F 42.5 °F 43.0 °F 89% 29.83 in 10.0 mi South 6.9 mph - N/A   Partly Cloudy
8:53 AM 48.9 °F - 43.0 °F 80% 29.84 in 10.0 mi SW 11.5 mph - N/A   Clear
9:53 AM 51.1 °F - 43.0 °F 74% 29.85 in 10.0 mi WSW 8.1 mph - N/A   Clear
10:53 AM 54.0 °F - 39.0 °F 57% 29.86 in 10.0 mi SW 8.1 mph - N/A   Clear
11:53 AM 55.0 °F - 39.0 °F 55% 29.85 in 10.0 mi SW 5.8 mph - N/A   Partly Cloudy
12:53 PM 55.9 °F - 39.0 °F 53% 29.84 in 10.0 mi West 4.6 mph - N/A   Partly Cloudy
1:53 PM 55.0 °F - 41.0 °F 59% 29.83 in 10.0 mi North 4.6 mph - N/A   Mostly Cloudy
2:53 PM 55.9 °F - 39.9 °F 55% 29.83 in 10.0 mi Variable 4.6 mph - N/A   Scattered Clouds
3:53 PM 55.0 °F - 39.0 °F 55% 29.83 in 10.0 mi ENE 4.6 mph - N/A   Clear
4:53 PM 50.0 °F - 42.1 °F 74% 29.84 in 10.0 mi NE 3.5 mph - N/A   Partly Cloudy
5:53 PM 48.9 °F - 41.0 °F 74% 29.84 in 10.0 mi East 5.8 mph - N/A   Clear
6:53 PM 46.9 °F - 41.0 °F 80% 29.85 in 10.0 mi SE 5.8 mph - N/A   Mostly Cloudy
7:53 PM 45.0 °F 40.6 °F 39.0 °F 80% 29.86 in 10.0 mi North 8.1 mph - N/A   Scattered Clouds
8:53 PM 43.0 °F 38.8 °F 39.9 °F 89% 29.87 in 10.0 mi NNE 6.9 mph - N/A   Mostly Cloudy
9:53 PM 43.0 °F - 41.0 °F 93% 29.88 in 10.0 mi Calm Calm - N/A   Mostly Cloudy
10:53 PM 42.1 °F 38.4 °F 39.9 °F 92% 29.90 in 10.0 mi North 5.8 mph - N/A   Scattered Clouds
11:53 PM 44.1 °F - 39.9 °F 85% 29.90 in 10.0 mi Calm Calm - N/A   Scattered Clouds